Weather History for Cleveland Burke, OH

Change the Weather History Date:

Tuesday, December 31, 2002

  Actual Average Record
Temperature  
Mean Temperature 43 °F -  
Max Temperature 53 °F 35 °F 57 °F (2004)
Min Temperature 33 °F 24 °F 17 °F (1998)
Degree Days  
Heating Degree Days 22    
Moisture  
Dew Point 40 °F    
Average Humidity 94    
Maximum Humidity 100    
Minimum Humidity 82    
Precipitation  
Precipitation 0.40 in - - ()
Sea Level Pressure  
Sea Level Pressure 29.93 in    
Wind  
Wind Speed 12 mph (SW)    
Max Wind Speed 16 mph    
Max Gust Speed 23 mph    
Visibility 4 miles    
Events Fog , Rain    
Averages and records for this station are not official NWS values.
T = Trace of Precipitation, MM = Missing Value Source: NWS Daily Summary

Daily Weather History Graph

Daily Weather History Graph

Search for Another Location

Airport:

Trip Planner

Search our weather history database for the weather conditions in past years. The results will help you decide how hot, cold, wet, or windy it might be!

Date:

Astronomy

Dec. 31, 2002 Rise Set
Actual Time 7:53 AM EST 5:06 PM EST
Civil Twilight 7:21 AM EST 5:37 PM EST
Nautical Twilight 6:47 AM EST 6:12 PM EST
Astronomical Twilight 6:13 AM EST 6:46 PM EST
Moon 5:36 AM EST (12/31) 3:06 PM EST (12/31)
Length of Visible Light 10h 16m
Length of Day
9h 13m
Waning Crescent, 6% of the Moon is Illuminated
Dec 31
Waning Crescent
Jan 2
New
Jan 10
First Quarter
Jan 18
Full
Jan 25
Last Quarter

Hourly Weather History & Observations

Time (EST) Temp. Windchill Dew Point Humidity Pressure Visibility Wind Dir Wind Speed Gust Speed Precip Events Conditions
12:53 AM 51.1 °F - 46.9 °F 86% 29.86 in 10.0 mi South 15.0 mph - N/A   Overcast
1:10 AM 51.8 °F - 46.4 °F 82% 29.84 in 9.0 mi South 13.8 mph - N/A   Overcast
1:35 AM 51.8 °F - 46.4 °F 82% 29.84 in 9.0 mi South 15.0 mph - N/A   Overcast
1:53 AM 51.1 °F - 46.9 °F 86% 29.86 in 9.0 mi South 13.8 mph - N/A   Overcast
2:53 AM 52.0 °F - 48.0 °F 86% 29.87 in 9.0 mi South 15.0 mph 23.0 mph N/A   Overcast
3:14 AM 51.8 °F - 48.2 °F 88% 29.86 in 9.0 mi South 16.1 mph - N/A   Overcast
3:32 AM 51.8 °F - 48.2 °F 88% 29.87 in 9.0 mi South 12.7 mph - N/A   Overcast
3:53 AM 52.0 °F - 48.0 °F 86% 29.87 in 9.0 mi South 12.7 mph - N/A   Overcast
4:53 AM 52.0 °F - 48.9 °F 89% 29.85 in 7.0 mi South 13.8 mph - N/A   Mostly Cloudy
5:53 AM 52.0 °F - 48.9 °F 89% 29.85 in 6.0 mi South 12.7 mph - N/A   Overcast
6:53 AM 53.1 °F - 48.9 °F 86% 29.86 in 7.0 mi South 16.1 mph - N/A   Overcast
7:53 AM 53.1 °F - 48.0 °F 83% 29.88 in 8.0 mi SSW 15.0 mph - N/A   Overcast
8:53 AM 52.0 °F - 48.0 °F 86% 29.89 in 5.0 mi SSW 16.1 mph - 0.00 in Rain Light Rain
9:13 AM 48.2 °F - 46.4 °F 93% 29.90 in 1.5 mi West 13.8 mph - 0.00 in Rain Light Rain
9:17 AM 44.6 °F 38.1 °F 44.6 °F 100% 29.90 in 0.8 mi West 13.8 mph - 0.01 in Rain Rain
9:25 AM 44.6 °F 39.7 °F 42.8 °F 93% 29.91 in 0.2 mi West 9.2 mph - 0.02 in Fog , Rain Light Rain
9:39 AM 42.8 °F 38.0 °F 42.8 °F 100% 29.91 in 0.2 mi WSW 8.1 mph - 0.03 in Fog , Rain Light Rain
9:53 AM 42.1 °F 35.7 °F 42.1 °F 100% 29.94 in 0.2 mi SW 11.5 mph - 0.04 in Fog , Rain Rain
10:43 AM 39.2 °F 32.0 °F 39.2 °F 100% 29.93 in 1.2 mi SW 11.5 mph - 0.06 in Rain Light Rain
10:53 AM 39.9 °F 32.9 °F 39.9 °F 100% 29.94 in 1.5 mi WSW 11.5 mph - 0.07 in Rain Light Rain
11:20 AM 39.2 °F 33.0 °F 39.2 °F 100% 29.92 in 0.8 mi WSW 9.2 mph - 0.03 in Rain Rain
11:53 AM 39.9 °F 32.1 °F 39.0 °F 97% 29.92 in 1.0 mi West 13.8 mph - 0.05 in Rain Light Rain
12:02 PM 39.2 °F 32.0 °F 37.4 °F 93% 29.91 in 0.5 mi West 11.5 mph - 0.01 in Fog , Rain Light Rain
12:34 PM 37.4 °F 30.8 °F 37.4 °F 100% 29.91 in 1.0 mi WSW 9.2 mph - 0.03 in Rain Light Rain
12:43 PM 37.4 °F 30.8 °F 37.4 °F 100% 29.91 in 1.2 mi WSW 9.2 mph - 0.04 in Rain Light Rain
12:53 PM 37.0 °F 30.4 °F 36.0 °F 96% 29.92 in 1.5 mi WSW 9.2 mph - 0.05 in Rain Light Rain
1:09 PM 37.4 °F 31.4 °F 35.6 °F 93% 29.91 in 1.8 mi WSW 8.1 mph - 0.02 in Rain Light Rain
1:23 PM 35.6 °F 29.9 °F 35.6 °F 100% 29.91 in 2.0 mi WSW 6.9 mph - 0.03 in Rain Light Rain
1:53 PM 36.0 °F 31.1 °F 35.1 °F 97% 29.91 in 1.5 mi WSW 5.8 mph - 0.07 in Rain Rain
2:34 PM 35.6 °F 30.7 °F 35.6 °F 100% 29.91 in 1.2 mi WSW 5.8 mph - 0.04 in Rain Rain
2:53 PM 36.0 °F 32.1 °F 35.1 °F 97% 29.92 in 1.2 mi WSW 4.6 mph - 0.07 in Rain Rain
3:53 PM 35.1 °F 26.9 °F 35.1 °F 100% 29.98 in 1.2 mi West 11.5 mph - 0.05 in Rain Light Rain
4:10 PM 35.6 °F 29.2 °F 35.6 °F 100% 29.96 in 1.5 mi West 8.1 mph - 0.00 in Rain Light Rain
4:17 PM 35.6 °F 29.2 °F 35.6 °F 100% 29.96 in 1.5 mi WSW 8.1 mph - 0.00 in   Overcast
4:29 PM 35.6 °F 28.6 °F 35.6 °F 100% 29.97 in 2.5 mi West 9.2 mph - 0.00 in   Overcast
4:44 PM 35.6 °F 30.7 °F 35.6 °F 100% 29.97 in 3.0 mi West 5.8 mph - 0.00 in   Overcast
4:53 PM 35.1 °F 30.1 °F 35.1 °F 100% 29.98 in 4.0 mi SW 5.8 mph - 0.00 in   Overcast
5:06 PM 35.6 °F 32.8 °F 35.6 °F 100% 29.97 in 5.0 mi SW 3.5 mph - N/A   Overcast
5:53 PM 37.9 °F 32.7 °F 35.1 °F 89% 29.97 in 10.0 mi WSW 6.9 mph - N/A   Overcast
6:53 PM 37.9 °F 32.1 °F 34.0 °F 86% 30.00 in 10.0 mi WSW 8.1 mph - N/A   Overcast
7:53 PM 35.1 °F 30.1 °F 33.1 °F 92% 30.02 in 9.0 mi WSW 5.8 mph - N/A   Clear
8:45 PM 35.6 °F 29.9 °F 33.8 °F 93% 30.03 in 7.0 mi WNW 6.9 mph - N/A   Mostly Cloudy
8:53 PM 35.1 °F 29.3 °F 34.0 °F 96% 30.04 in 7.0 mi WNW 6.9 mph - N/A   Mostly Cloudy
9:26 PM 33.8 °F 29.6 °F 33.8 °F 100% 30.03 in 5.0 mi West 4.6 mph - N/A   Partly Cloudy
9:53 PM 34.0 °F 31.0 °F 33.1 °F 96% 30.04 in 4.0 mi WSW 3.5 mph - N/A   Clear
10:53 PM 33.1 °F - 32.0 °F 96% 30.03 in 4.0 mi Calm Calm - N/A   Clear
11:53 PM 33.1 °F 30.0 °F 32.0 °F 96% 30.02 in 4.0 mi NW 3.5 mph - N/A   Clear